Time,TemperatureF,DewpointF,PressureIn,WindDirection,WindDirectionDegrees,WindSpeedMPH,WindSpeedGustMPH,Humidity,HourlyPrecipIn,Conditions,Clouds,dailyrainin,SoftwareType,DateUTC
2013-02-10 01:11:00,12.0,5.0,-100.00,East,100,3.0,8.0,73,-99.99,,,-99.99,,2013-02-10 06:11:00,
2013-02-10 01:21:00,13.0,5.0,-100.00,ENE,65,3.0,12.0,72,-99.99,,,-99.99,,2013-02-10 06:21:00,
2013-02-10 01:32:00,13.0,5.0,-100.00,ENE,70,2.0,8.0,72,-99.99,,,-99.99,,2013-02-10 06:32:00,
2013-02-10 01:42:00,12.0,5.0,-100.00,NNE,25,3.0,9.0,72,-99.99,,,-99.99,,2013-02-10 06:42:00,
2013-02-10 01:51:00,12.0,5.0,-100.00,ENE,60,6.0,12.0,71,-99.99,,,-99.99,,2013-02-10 06:51:00,
2013-02-10 02:01:00,12.0,5.0,-100.00,ENE,70,3.0,8.0,72,-99.99,,,-99.99,,2013-02-10 07:01:00,
2013-02-10 02:11:00,12.0,5.0,-100.00,East,85,1.0,7.0,72,-99.99,,,-99.99,,2013-02-10 07:11:00,
2013-02-10 02:21:00,12.0,4.0,-100.00,NNE,15,1.0,8.0,71,-99.99,,,-99.99,,2013-02-10 07:21:00,
2013-02-10 02:32:00,12.0,4.0,-100.00,ENE,60,2.0,8.0,71,-99.99,,,-99.99,,2013-02-10 07:32:00,
2013-02-10 02:42:00,12.0,4.0,-100.00,ENE,60,2.0,8.0,71,-99.99,,,-99.99,,2013-02-10 07:42:00,
2013-02-10 02:51:00,13.0,5.0,-100.00,East,80,2.0,10.0,70,-99.99,,,-99.99,,2013-02-10 07:51:00,
2013-02-10 03:32:00,13.0,4.0,-100.00,NE,45,2.0,7.0,69,-99.99,,,-99.99,,2013-02-10 08:32:00,
2013-02-10 09:22:00,20.0,12.0,-100.00,NE,45,2.0,6.0,71,-99.99,,,-99.99,,2013-02-10 14:22:00,
2013-02-10 09:32:00,20.0,12.0,-100.00,NE,45,2.0,6.0,71,-99.99,,,-99.99,,2013-02-10 14:32:00,
2013-02-10 10:02:00,23.0,11.0,-100.00,East,90,2.0,7.0,61,-99.99,,,-99.99,,2013-02-10 15:02:00,
2013-02-10 11:30:00,32.0,12.0,-100.00,NE,55,2.0,12.0,43,-99.99,,,-99.99,,2013-02-10 16:30:00,
2013-02-10 12:12:00,32.0,12.0,-100.00,NE,55,2.0,12.0,43,-99.99,,,-99.99,,2013-02-10 17:12:00,
2013-02-10 12:22:00,32.0,12.0,-100.00,NE,55,2.0,12.0,43,-99.99,,,-99.99,,2013-02-10 17:22:00,
2013-02-10 12:42:00,36.0,14.0,-100.00,ENE,75,3.0,7.0,41,-99.99,,,-99.99,,2013-02-10 17:42:00,
2013-02-10 12:53:00,35.0,13.0,-100.00,East,100,2.0,7.0,39,-99.99,,,-99.99,,2013-02-10 17:53:00,
2013-02-10 13:02:00,36.0,13.0,-100.00,NE,50,3.0,9.0,39,-99.99,,,-99.99,,2013-02-10 18:02:00,
2013-02-10 13:12:00,35.0,12.0,-100.00,ENE,70,6.0,12.0,37,-99.99,,,-99.99,,2013-02-10 18:12:00,
2013-02-10 13:22:00,37.0,12.0,-100.00,NE,40,5.0,9.0,35,-99.99,,,-99.99,,2013-02-10 18:22:00,
2013-02-10 13:32:00,38.0,13.0,-100.00,ENE,65,3.0,9.0,35,-99.99,,,-99.99,,2013-02-10 18:32:00,
2013-02-10 13:42:00,39.0,11.0,-100.00,NE,50,5.0,10.0,30,-99.99,,,-99.99,,2013-02-10 18:42:00,
2013-02-10 13:52:00,39.0,11.0,-100.00,NE,50,5.0,10.0,30,-99.99,,,-99.99,,2013-02-10 18:52:00,
2013-02-10 14:02:00,41.0,8.0,-100.00,NNE,20,5.0,6.0,26,-99.99,,,-99.99,,2013-02-10 19:02:00,
2013-02-10 14:12:00,40.0,7.0,-100.00,NE,50,2.0,6.0,25,-99.99,,,-99.99,,2013-02-10 19:12:00,
2013-02-10 14:22:00,42.0,9.0,-100.00,NE,45,1.0,6.0,26,-99.99,,,-99.99,,2013-02-10 19:22:00,
2013-02-10 14:32:00,42.0,6.0,-100.00,NNW,335,1.0,5.0,22,-99.99,,,-99.99,,2013-02-10 19:32:00,
2013-02-10 14:43:00,43.0,9.0,-100.00,SSE,150,2.0,5.0,24,-99.99,,,-99.99,,2013-02-10 19:43:00,
2013-02-10 14:52:00,42.0,6.0,-100.00,NW,305,1.0,3.0,22,-99.99,,,-99.99,,2013-02-10 19:52:00,
2013-02-10 15:02:00,42.0,4.0,-100.00,WNW,290,0.0,2.0,20,-99.99,,,-99.99,,2013-02-10 20:02:00,
2013-02-10 15:11:00,41.0,4.0,-100.00,North,0,3.0,6.0,21,-99.99,,,-99.99,,2013-02-10 20:11:00,
2013-02-10 15:22:00,41.0,6.0,-100.00,NNW,330,3.0,8.0,23,-99.99,,,-99.99,,2013-02-10 20:22:00,
2013-02-10 15:32:00,40.0,8.0,-100.00,North,5,3.0,7.0,26,-99.99,,,-99.99,,2013-02-10 20:32:00,
2013-02-10 15:42:00,41.0,9.0,-100.00,NE,40,1.0,8.0,27,-99.99,,,-99.99,,2013-02-10 20:42:00,
2013-02-10 15:52:00,41.0,7.0,-100.00,NNE,30,2.0,5.0,24,-99.99,,,-99.99,,2013-02-10 20:52:00,
2013-02-10 16:02:00,41.0,9.0,-100.00,NE,40,3.0,7.0,26,-99.99,,,-99.99,,2013-02-10 21:02:00,
2013-02-10 16:12:00,40.0,7.0,-100.00,NNE,15,3.0,7.0,25,-99.99,,,-99.99,,2013-02-10 21:12:00,
2013-02-10 16:22:00,40.0,9.0,-100.00,North,10,2.0,5.0,27,-99.99,,,-99.99,,2013-02-10 21:22:00,
2013-02-10 16:32:00,40.0,7.0,-100.00,NNW,335,3.0,8.0,25,-99.99,,,-99.99,,2013-02-10 21:32:00,
2013-02-10 16:42:00,40.0,8.0,-100.00,North,0,2.0,7.0,26,-99.99,,,-99.99,,2013-02-10 21:42:00,
2013-02-10 21:01:00,20.0,16.0,-100.00,WNW,285,1.0,3.0,83,-99.99,,,-99.99,,2013-02-11 02:01:00,